{"data":{"norad_id":51969,"intl_designator":"2022-025P","name":"STARLINK-3680","alt_names":[],"object_type":"PAYLOAD","status":"ACTIVE","operator":null,"country":"US","launch_date":"2022-03-09","launch_site_code":"AFETR","launch_vehicle":null,"mission":null,"orbit_class":"UNKNOWN","rcs_meters":null,"size_class":null,"mass_kg":null,"dimensions":null,"purposes":["comms"],"wikipedia_slug":null,"has_3d_model":false,"image_url":null,"decayed_at":null,"tle_current":{"epoch":"2026-05-25T02:41:29.950080Z","epoch_age_seconds":68641,"freshness":"FRESH","line1":"1 51969U 22025P   26145.11215220  .00004785  00000+0  16574-3 0  9992","line2":"2 51969  53.1597  28.8849 0001144 111.0258 249.0865 15.31720295232713","mean_motion":15.31720295,"eccentricity":0.0001144,"inclination_deg":53.1597,"raan_deg":28.8849,"arg_perigee_deg":111.0258,"mean_anomaly_deg":249.0865,"bstar":0.00016574,"rev_number":23271,"period_min":94.011942304388,"perigee_km":469.89599294739,"apogee_km":471.46300216203,"semimajor_km":6848.8164975547,"source":"CELESTRAK","updated_at":"2026-05-25T13:38:16.993211Z"}}}